Details for Air Canada Rouge at CYUL




Go Back


Latest METAR
Local Time

CYUL 061600Z 27013G19KT 30SM FEW180 FEW240 10/M03 A3002 RMK AC1CI1 AC TR CI TR SLP167
06/04/2020, 14:01:25

Description
Results
Air Canada Rouge Logo
Number of Pilots based at CYUL
0 Pilots Based here
Number of Air Canada Rouge Flights Departed from CYUL
0 Flights Departed
Number of Air Canada Rouge Flights Arrived at CYUL
1 Flights Arrived
Number of Air Canada Rouge Schedules Departing from CYUL
48 Schedules
Number of Air Canada Rouge Schedules Arriving at CYUL
48 Schedules
Number of Air Canada Rouge Schedules Departing from CYUL availible today
21 Schedules Today
Number of Air Canada Rouge Schedules Arriving at CYUL availible today
21 Schedules Today
Average Landing Rate at CYUL
-200 fpm
Air Canada Rouge Average Landing Rate at CYUL
-643 fpm
Total Fuel Purchased at CYUL by Air Canada Rouge
0.00 kgs / 0.00 lbs

Pilots Based at CYUL


Pilot ID
Pilot Name
Pilot Rank
No. of Flights
No. of Flying Hours
There are no pilots assigned to this hub!   Will you be the first?